Tracking 31027 objects as of 19-Jul-2025
HD Live streaming from Space Station
objects crossing your sky now

FENGYUN 1C DEB

Track FENGYUN 1C DEB now!
10-day predictions


NORAD ID: 32143
Int'l Code: 1999-025CSM
Perigee: 765.2 km
Apogee: 914.7 km
Inclination: 98.6 °
Period: 101.6 minutes
Semi major axis: 7210 km
RCS: 0.012 m2 (small)
Launch date: May 10, 1999
Source: People's Republic of China (PRC)
Launch site: Taiyaun Space Center, China (TSC)

Note: This is SATELLITE DEBRIS
Your satellite tracking list
FENGYUN 1C DEB
Track 1 satellite(s)




NASA's NSSDC Master Catalog

Two Line Element Set (TLE):
1 32143U 99025CSM 25197.17987311  .00000177  00000-0  10191-3 0  9999
2 32143  98.5762 178.9891 0103676 179.1802 180.9562 14.17807714938142
Source of the keplerian elements: AFSPC